STARLINK-36481, 67307

Orbit data source: Space-Track

STARLINK-36481, 67307 is a payload satellite owned by SpaceX/Seattle (US) in LEO that was launched on Sun, 04 Jan 2026 UTC via an FALCON 9 launch vehicle from the Air Force Eastern Test Range (AFETR). Payload-class satellites include a variety of spacecraft equipped with specific instruments for various scientific and technological missions. These include communications satellites like Starlink; space stations such as the ISS; scientific satellites like the Hubble; Earth observation satellites from companies like Planet Labs, Umbra, and HawkEye 360; GPS; miniature CubeSats for education and research; and military/defense satellites.

Loading next visibility...
Identifier
67307, 2026-002C
Orbit
LEO
Country
Flag of USUS
Related business
Manufacturer
SpaceX/Seattle
Mission
Operational spacecraft
Bus & Motor
STARLINK V2MO, Unknown motor
Mass
575 kg wet, ~530 kg dry
Launch date (UTC)
2026-01-04 (2 weeks ago)
Launch vehicle
FALCON 9
Launch site
Air Force Eastern Test Range (AFETR)
Object type
Payload
Rocket body
Debris
Shape & HBR
Unknown shape, 17.7 m
Radar Cross Section
RCS unknown

Expand to show TLE details & history
Last TLE update: 12 hours ago

TLE from 12 hours ago
0 STARLINK-36481
1 67307U 26002C   26014.25002315 -.01166101  00000-0 -40932-2 0  9992
2 67307  42.9979 280.4871 0001941 278.2385 109.9841 15.90821665  2664
Epoch: 2026-01-14T06:00Z
TLE epoch observation values (Epoch: 2026-01-14T06:00:02.000Z)
Latitude
18.88498°
Longitude
98.15277°
Altitude
299.671 km
Speed
7.731 km/s
True Right ascension
20h 07m 31s
True Declination
18° 46' 22"
Sunlit
Object was in daylight at epoch
Visualization orbit readout
Latitude
Unknown
Longitude
Unknown
Altitude
Unknown
Speed
Unknown
Apparent Right ascension
Unknown
Apparent Declination
Unknown
Sunlit
N/A
Visualization observer readout
Local Sidereal Time
18:23:22
Azimuth
Unknown
Elevation
Unknown
Doppler factor
Unknown
Orbital elements
Apogee altitude
303.278 km
Perigee altitude
300.684 km
Semi-major axis
6,680.118 km
Eccentricity
0.00019
Inclination
42.9979°
RAAN
280.4871°
Arg. of periapsis
278.2385°
True anomaly
110.005°
Mean anomaly
109.9841°
Eccentric anomaly
109.99455°
Mean motion
3.97527 °/min
Orbital period
90.56 mins
BSTAR
-0.0040932
Loading maneuver chart data...
Computing Atmospheric mass density...
Loading historical data...
Loading historical data...
Loading historical data...
Loading historical data...
Loading historical data...
Loading historical data...
Loading historical data...

Documentation

Showing up to 5 results
|